Essaouira, Morocco

12:00 AM WET on February 19, 2018 (GMT +0000)
Essaouira

Weather History for GMMI - December, 2013

Change the Weather History Date:

Wednesday, December 18, 2013

  Actual Average Record
Temperature  
Mean Temperature 56 °F -  
Max Temperature 63 °F 65 °F - ()
Min Temperature 50 °F 52 °F - ()
Degree Days  
Heating Degree Days 8    
Growing Degree Days 6 (Base 50)    
Moisture  
Dew Point 49 °F    
Average Humidity 65    
Maximum Humidity 82    
Minimum Humidity 41    
Precipitation  
Precipitation 0.00 in 0.07 in - ()
Sea Level Pressure  
Sea Level Pressure 30.34 in    
Wind  
Wind Speed 8 mph ()    
Max Wind Speed 16 mph    
Max Gust Speed -    
Visibility 4.9 miles    
Events      
T = Trace of Precipitation, MM = Missing Value Source: Averaged Metar Reports

Daily Weather History Graph

Daily Weather History Graph

Search for Another Location

Airport or City:

Trip Planner

Search our weather history database for the weather conditions in past years. The results will help you decide how hot, cold, wet, or windy it might be!

Date:

Astronomy

Dec. 18, 2013 Rise Set
Actual Time 7:32 AM WET 5:38 PM WET
Civil Twilight 7:05 AM WET 6:05 PM WET
Nautical Twilight 6:35 AM WET 6:36 PM WET
Astronomical Twilight 6:05 AM WET 7:05 PM WET
Moon 6:54 PM WET (12/18) 8:07 AM WET (12/18)
Length of Visible Light 10h 59m
Length of Day
10h 05m
Full, 99% of the Moon is Illuminated
Dec 18
Full
Dec 25
Last Quarter
Jan 1
New
Jan 8
First Quarter
Jan 16
Full

Hourly Weather History & Observations

Time (WET) Temp. Dew Point Humidity Pressure Visibility Wind Dir Wind Speed Gust Speed Precip Events Conditions
12:00 AM 57 °F 51 °F 73% 30.36 in - East 8.9 mph - -  
3:00 AM 55 °F 50 °F 76% 30.33 in - NE 11.2 mph - -  
6:00 AM 54 °F 48 °F 73% 30.30 in - ENE 11.2 mph - -  
7:00 AM 50.0 °F 44.6 °F 82% 30.36 in 3.7 mi SE 6.9 mph - N/A   Unknown
8:00 AM 50.0 °F 44.6 °F 82% 30.36 in 3.7 mi SE 6.9 mph - N/A   Unknown
9:00 AM 57 °F 52 °F 78% 30.39 in 6 mi NE 6.9 mph - -  
9:00 AM 55.4 °F 48.2 °F 77% 30.36 in 3.7 mi NE 6.9 mph - N/A   Unknown
10:00 AM 62.6 °F 46.4 °F 55% 30.39 in 5.0 mi NE 6.9 mph - N/A   Unknown
11:00 AM 64.4 °F 48.2 °F 56% 30.39 in 5.0 mi NE 6.9 mph - N/A   Unknown
12:00 PM 54 °F 37 °F 41% 30.39 in 5 mi NE 4.6 mph - -   Scattered Clouds
12:00 PM 68.0 °F 44.6 °F 43% 30.39 in 5.0 mi NNE 6.9 mph - N/A   Unknown
1:00 PM 69.8 °F 50.0 °F 49% 30.33 in 5.0 mi NNW 6.9 mph - N/A   Unknown
2:00 PM 69.8 °F 48.2 °F 46% 30.33 in 5.0 mi NNW 11.5 mph - N/A   Unknown
3:00 PM 63 °F 56 °F 70% 30.33 in 6 mi North 11.5 mph - -  
3:00 PM 68.0 °F 48.2 °F 49% 30.30 in 5.0 mi NNW 11.5 mph - N/A   Unknown
4:00 PM 68.0 °F 50.0 °F 52% 30.30 in 5.0 mi NNW 11.5 mph - N/A   Unknown
5:00 PM 66.2 °F 51.8 °F 60% 30.30 in 5.0 mi NNW 15.0 mph - N/A   Unknown
6:00 PM 62 °F 57 °F 79% 30.32 in 6 mi NNE 6.9 mph - -  
6:00 PM 62.6 °F 51.8 °F 68% 30.30 in 5.0 mi NNW 13.8 mph - N/A   Partly Cloudy
9:00 PM 61 °F 57 °F 81% 30.33 in - NNE 15.7 mph - -